Location: Helsinki
(60.1699°N, 24.9384°E)
Time: 22:51:48
(UTC+02:00)

A-11 Canister half - Pass Details

Date: 27 October 2020
Orbit: 1516 x 1684 km, 47.2° (Epoch: 26 November)

Event Time Altitude Azimuth Distance (km) Brightness Sun altitude
Rises 01:29:52 0° 267° (W) 4,889 - -40.1°
Reaches altitude 10° 01:33:26 10° 259° (W) 3,880 - -39.9°
Maximum altitude 01:41:47 33° 201° (SSW) 2,457 - -39.4°
Drops below altitude 10° 01:49:54 10° 142° (SE) 3,758 - -38.9°
Exits shadow 01:52:32 - 135° (SE) 4,493 11.4 -38.7°
Sets 01:53:18 0° 133° (SE) 4,718 11.5 -38.6°
